This is the latest recevied weather packets stored in our database for station/object KB2KMM. If no packets are shown the sender has not sent any weather packets the latest 1 day(s).
| Time | Temp. | Humidity | Pressure | Rain* | Wind** | Luminosity | Snow |
|---|---|---|---|---|---|---|---|
| 1778030405 | 15.56° C | 79% | 1011.6 hPa | 0 mm | 3.13 m/s, 340° | - | - |
| 1778030105 | 15.56° C | 78% | 1011.5 hPa | 0 mm | 4.02 m/s, 342° | - | - |
| 1778029805 | 16.11° C | 78% | 1011.5 hPa | 0 mm | 4.02 m/s, 336° | - | - |
| 1778029505 | 16.11° C | 78% | 1011.4 hPa | 0 mm | 2.68 m/s, 330° | - | - |
| 1778029205 | 16.11° C | 76% | 1011.2 hPa | 0 mm | 3.13 m/s, 337° | - | - |
| 1778028905 | 16.11° C | 76% | 1011.2 hPa | 0 mm | 2.68 m/s, 335° | - | - |
| 1778028605 | 16.11° C | 76% | 1011.2 hPa | 0 mm | 2.24 m/s, 336° | - | - |
| 1778028305 | 16.11° C | 76% | 1011.1 hPa | 0 mm | 2.68 m/s, 340° | - | - |
| 1778028006 | 16.11° C | 76% | 1011.1 hPa | 0 mm | 2.68 m/s, 332° | - | - |
| 1778027705 | 16.11° C | 76% | 1011 hPa | 0 mm | 3.13 m/s, 341° | - | - |
| 1778027408 | 16.11° C | 77% | 1010.9 hPa | 0 mm | 4.02 m/s, 352° | - | - |
| 1778027105 | 16.11° C | 78% | 1010.9 hPa | 0 mm | 4.92 m/s, 352° | - | - |
| 1778026809 | 16.11° C | 78% | 1010.9 hPa | 0 mm | 3.58 m/s, 356° | - | - |
| 1778026505 | 15.56° C | 78% | 1010.7 hPa | 0 mm | 4.02 m/s, 358° | - | - |
| 1778026209 | 15.56° C | 78% | 1010.7 hPa | 0 mm | 3.13 m/s, 357° | - | - |
| 1778025905 | 15.56° C | 79% | 1010.7 hPa | 0 mm | 4.02 m/s, 350° | - | - |
| 1778025605 | 15.56° C | 79% | 1010.6 hPa | 0 mm | 3.58 m/s, 347° | - | - |
| 1778025305 | 15.56° C | 79% | 1010.6 hPa | 0 mm | 2.24 m/s, 347° | - | - |
| 1778025009 | 15.56° C | 79% | 1010.6 hPa | 0 mm | 2.68 m/s, 350° | - | - |
| 1778024705 | 15.56° C | 78% | 1010.5 hPa | 0 mm | 3.58 m/s, 349° | - | - |
| 1778024409 | 15.56° C | 78% | 1010.3 hPa | 0 mm | 3.13 m/s, 345° | - | - |
| 1778024107 | 15.56° C | 77% | 1010.1 hPa | 0 mm | 3.13 m/s, 343° | - | - |
| 1778023810 | 16.11° C | 75% | 1010.1 hPa | 0 mm | 4.02 m/s, 335° | - | - |
| 1778023505 | 16.11° C | 74% | 1010.1 hPa | 0 mm | 2.24 m/s, 324° | - | - |
| 1778023209 | 16.11° C | 73% | 1010 hPa | 0 mm | 4.02 m/s, 324° | - | - |
* Rain latest hour (hover to see other rain measurements)
** Current wind speed in m/s (hover to see current wind gust speed)